DIAMANT R/B, 2017

Orbit data source: Space-Track

DIAMANT R/B, 2017 is space debris in LEO originally from a launch on Thu, 17 Feb 1966 UTC launched from the Hamma Guira Space Track Range (HGSTR). Debris objects in space refer to the collection of defunct objects orbiting the Earth. Examples of debris include non-operational satellites, rocket bodies, and fragments generated from explosions, collisions, or faulty payload assembly.

Loading next visibility...
Identifier
2017, 1966-013B
Orbit
LEO
Country
Flag of FRFR
Related business
Manufacturer
Sud
Mission
Spacecraft
Bus & Motor
RUBIS, Unknown motor
Mass
65 kg wet, 65 kg dry
Launch date (UTC)
1966-02-17 (61 years ago)
Launch vehicle
Unknown
Launch site
Hamma Guira Space Track Range (HGSTR)
Object type
Payload
Rocket body
Debris
Shape & HBR
CYL, 1.1 m
Radar Cross Section
Medium (>0.1 m² and <1 m²)

Expand to show TLE details & history
Last TLE update: 22 hours ago

TLE from 22 hours ago
0 DIAMANT R/B
1 02017U 66013B   26255.17608321  .00000893  00000-0  23868-3 0  9994
2 02017  34.0628  65.0471 1033327  51.1838 317.6593 12.93780212781042
Epoch: 2026-09-12T04:13Z
TLE epoch observation values (Epoch: 2026-09-12T04:13:33.589Z)
Latitude
0.00003°
Longitude
10.46835°
Altitude
741.822 km
Speed
7.746 km/s
True Right ascension
04h 20m 11s
True Declination
0° 00' 00"
Sunlit
Object was in daylight at epoch
Visualization orbit readout
Latitude
Unknown
Longitude
Unknown
Altitude
Unknown
Speed
Unknown
Apparent Right ascension
Unknown
Apparent Declination
Unknown
Sunlit
N/A
Visualization observer readout
Local Sidereal Time
18:34:44
Azimuth
Unknown
Elevation
Unknown
Doppler factor
Unknown
Orbital elements
Apogee altitude
2,081.988 km
Perigee altitude
497.321 km
Semi-major axis
7,667.791 km
Eccentricity
0.10333
Inclination
34.0628°
RAAN
65.0471°
Arg. of periapsis
51.1838°
True anomaly
308.88096°
Mean anomaly
317.6593°
Eccentric anomaly
313.35436°
Mean motion
3.23249 °/min
Orbital period
111.37 mins
BSTAR
0.00023868
Loading maneuver chart data...
Computing Atmospheric mass density...

Documentation

Showing up to 5 results
|